|
Centaur D AC-29 - Orbit
|
Hopewell Observatory;
14:10:26
| Home | Info | Passes |
|
View from above orbital plane
|
View from above satellite
|
Ground track
|
The orbit data is extracted from the following two-line orbital elements,
1 06058U 72041B 13141.70777284 .00000034 00000-0 16266-3 0 9154
2 06058 026.7552 048.7679 7203993 286.5707 030.9120 02.22215766331125
| Epoch (UTC): | 21 May 2013 16:59:11 |
| Eccentricity: | 0.7203993 |
| inclination: | 26.7552° |
| perigee height: | 557 km |
| apogee height: | 36297 km |
| right ascension of ascending node: | 48.7679° |
| argument of perigee: | 286.5707° |
| revolutions per day: | 2.22215766 |
| mean anomaly at epoch: | 30.9120° |
| orbit number at epoch: | 33112 |
The dashed part of the orbit path shows where the satellite is in the earth's shadow,
|
|